Hourly Data Report for October 01, 2017

All times are specified in Local Standard Time (LST). Add 1 hour to adjust for Daylight Saving Time where and when it is observed.

ASHCROFT
BRITISH COLUMBIA

50°42'30.005" N
121°16'53.001" W
327.00 m
1160515
71681
VAS

Download Data

Hourly Data (October 2017)
Hourly Data Report for October 1, 2017
Temp Definition
°C
Dew Point Temp Definition
°C
Rel Hum Definition
%
Wind Dir Definition
10's deg

Wind Spd Definition
km/h
Visibility Definition
km
Stn Press Definition
kPa
Hmdx Definition


Wind Chill Definition


Weather Definition


TIME
00:00 8.0 5.4 84 35 2   97.88     LegendNANA
01:00 7.5 5.8 89 21 7   97.88     LegendNANA
02:00 7.8 5.7 87 18 2   97.88     LegendNANA
03:00 7.1 5.5 89 14 5   97.90     LegendNANA
04:00 6.3 5.0 91 14 3   97.94     LegendNANA
05:00 6.4 5.4 93 17 3   97.97     LegendNANA
06:00 7.1 5.6 91 19 4   98.04     LegendNANA
07:00 7.0 5.7 92 18 2   98.09     LegendNANA
08:00 7.9 6.0 87 15 4   98.11     LegendNANA
09:00 8.9 7.1 89 22 5   98.11     LegendNANA
10:00 9.6 6.8 82 23 7   98.09     LegendNANA
11:00 11.0 6.1 71 17 2   98.09     LegendNANA
12:00 12.0 6.0 67 23 6   98.06     LegendNANA
13:00 13.4 5.0 57 25 4   98.05     LegendNANA
14:00 14.5 2.4 44 33 5   98.02     LegendNANA
15:00 16.1 -0.6 32 2 4   98.00     LegendNANA
16:00 12.9 2.2 48 6 10   98.13     LegendNANA
17:00 12.2 2.6 52 7 11   98.16     LegendNANA
18:00 12.1 3.0 54 5 7   98.20     LegendNANA
19:00 12.3 2.3 51 2 10   98.24     LegendNANA
20:00 11.9 1.8 50 3 10   98.28     LegendNANA
21:00 11.8 1.8 50 4 15   98.28     LegendNANA
22:00 11.6 1.9 51 5 12   98.30     LegendNANA
23:00 11.5 1.9 52 2 14   98.31     LegendNANA

Notes on Data Quality.

Legend

  • E = Estimated
  • M = Missing
  • NA = Not Available
  • ‡ = Partner data that is not subject to review by the National Climate Archives
Date modified: